(239365) = 2007 RZ220 = 2001 QF229

Discovered at Mount Lemmon on 2007-09-14 by Mt. Lemmon Survey.

Orbit

Orbit type: Main Belt

Note: WebGL enabled browser required.

epoch2024-03-31.0
epoch JD2460400.5
perihelion date2025-10-30.76351
perihelion JD2460979.26351
argument of perihelion (°)321.75328
ascending node (°)200.31598
inclination (°)10.20242
eccentricity0.0416697
perihelion distance (AU)2.9259640
Tisserand w.r.t. Jupiter3.2
ΔV w.r.t. Earth (km/sec)11.1
semimajor axis (AU)3.0531893
mean anomaly (°)253.07620
mean daily motion (°/day)0.18474520
aphelion distance (AU)3.180
period (years)5.33
P-vector [x]-0.94803090
P-vector [y]0.31765679
P-vector [z]0.01820936
Q-vector [x]-0.31217854
Q-vector [y]-0.91756835
Q-vector [z]-0.24619684
absolute magnitude15.6
phase slope0.15
uncertainty0
referenceMPEC 2024-C163
observations used468
oppositions17
arc length (days)11770
first opposition used1991
last opposition used2023
residual rms (arc-secs)0.69
perturbers coarse indicatorM-v
perturbers precise indicator003Ek
first observation date used1991-10-09.0
last observation date used2023-12-30.0
computer nameMPCLINUX
JD of orbit computation2456670.661168
perihelion JD uncertainty (days)5.2082E-04
argument of perihelion uncertainty (°)1.0265E-04
ascending node uncertainty (°)4.1466E-05
inclination uncertainty (°)1.2857E-05
eccentricity uncertainty 1.1057E-07
perihelion distance uncertainty (AU)3.3911E-07
Minimum Orbit Intersection Distances (in AU)
for orbit epoch: 2460200.5, reference: E2024-CG3
Mercury2.52123
Venus2.21023
Earth1.92931
Mars1.28436
Jupiter1.79817
Saturn6.049
Uranus15.5475
Neptune26.6918

Observations

478 total observations over interval: 1991 10 09.29161 – 2023 12 30.260081
These data are available for download (format description).

Date (UT) J2000 RA J2000 Dec Magn Location Ref
1991 10 09.29161 00 46 40.28 +06 54 31.9 20.7 V 691 – Steward Observatory, Kitt Peak-Spacewatch MPS 220677
1991 10 09.31217 00 46 39.37 +06 54 23.7   691 – Steward Observatory, Kitt Peak-Spacewatch MPS 220677
1991 10 09.33259 00 46 38.43 +06 54 14.2   691 – Steward Observatory, Kitt Peak-Spacewatch MPS 220677
2001 08 24.30990 21 34 48.81 -01 43 53.7 20.8 V 691 – Steward Observatory, Kitt Peak-Spacewatch MPS 34870
2001 08 24.31373 21 34 48.65 -01 43 55.1 21.0 V 691 – Steward Observatory, Kitt Peak-Spacewatch MPS 34870
2001 08 24.31804 21 34 48.46 -01 43 56.5 20.8 V 691 – Steward Observatory, Kitt Peak-Spacewatch MPS 34870
2001 08 25.26558 21 34 08.94 -01 49 31.0 20.0   704 – Lincoln Laboratory ETS, New Mexico MPS 34870
2001 08 25.29153 21 34 07.72 -01 49 39.8 20.4   704 – Lincoln Laboratory ETS, New Mexico MPS 34870
2001 08 25.31759 21 34 06.60 -01 49 50.8 20.4   704 – Lincoln Laboratory ETS, New Mexico MPS 34870
2004 01 12.29278 08 25 36.30 +04 03 45.1 19.9   644 – Palomar Mountain/NEAT MPS 286957
2004 01 12.31354 08 25 35.32 +04 03 47.1 20.1   644 – Palomar Mountain/NEAT MPS 286957
2004 01 12.33462 08 25 34.36 +04 03 48.9 19.8   644 – Palomar Mountain/NEAT MPS 286957
2005 03 12.45810 14 47 21.32 -14 13 21.7 19.9 R G96 – Mt. Lemmon Survey MPS 220677
2005 03 12.46355 14 47 21.31 -14 13 20.7 19.6 R G96 – Mt. Lemmon Survey MPS 220677
2005 03 12.46902 14 47 21.29 -14 13 19.4 20.0 R G96 – Mt. Lemmon Survey MPS 220677
2005 03 12.47452 14 47 21.27 -14 13 17.9 20.1 R G96 – Mt. Lemmon Survey MPS 220677
2005 04 06.28612 14 40 02.02 -12 07 11.4 18.9 R G96 – Mt. Lemmon Survey MPS 220677
2005 04 06.29141 14 40 01.81 -12 07 09.6 19.3 R G96 – Mt. Lemmon Survey MPS 220677
2005 04 06.29667 14 40 01.67 -12 07 07.4 19.2 R G96 – Mt. Lemmon Survey MPS 220677
2005 04 06.30192 14 40 01.48 -12 07 05.4 19.6 R G96 – Mt. Lemmon Survey MPS 220677
2005 04 13.29269 14 35 50.55 -11 20 51.4 19.4 R 699 – Lowell Observatory-LONEOS MPS 220677
2005 04 13.31300 14 35 49.85 -11 20 43.9   699 – Lowell Observatory-LONEOS MPS 220677
2005 04 13.33333 14 35 49.04 -11 20 35.1   699 – Lowell Observatory-LONEOS MPS 220677
2005 04 13.35363 14 35 48.22 -11 20 26.2   699 – Lowell Observatory-LONEOS MPS 220677
2005 05 03.36717 14 21 34.82 -09 01 56.6 19.4   704 – Lincoln Laboratory ETS, New Mexico MPS 317980
2005 05 03.37803 14 21 34.40 -09 01 54.0 19.4   704 – Lincoln Laboratory ETS, New Mexico MPS 317980
2005 05 03.38858 14 21 33.94 -09 01 50.7 19.6   704 – Lincoln Laboratory ETS, New Mexico MPS 317980
2007 09 14.31999 01 17 45.52 +10 23 42.1 20.3 V G96 – Mt. Lemmon Survey MPS 216562
2007 09 14.32574 01 17 45.38 +10 23 40.5 20.0 V G96 – Mt. Lemmon Survey MPS 216562
2007 09 14.33672 01 17 45.06 +10 23 36.9 20.3 V G96 – Mt. Lemmon Survey MPS 216562
2007 09 14.34235 01 17 44.88 +10 23 35.4 20.4 V G96 – Mt. Lemmon Survey MPS 216562
2007 09 15.45778 01 17 11.81 +10 17 44.7   691 – Steward Observatory, Kitt Peak-Spacewatch MPS 216562
2007 09 15.47541 01 17 11.27 +10 17 38.7   691 – Steward Observatory, Kitt Peak-Spacewatch MPS 216562
2007 09 15.49306 01 17 10.72 +10 17 33.4   691 – Steward Observatory, Kitt Peak-Spacewatch MPS 216562
2007 09 19.47117 01 15 04.19 +09 55 25.6 20.2 V 691 – Steward Observatory, Kitt Peak-Spacewatch MPS 217797
2007 09 19.48631 01 15 03.67 +09 55 20.3 20.4 V 691 – Steward Observatory, Kitt Peak-Spacewatch MPS 217797
2007 09 19.50144 01 15 03.15 +09 55 15.0 20.4 V 691 – Steward Observatory, Kitt Peak-Spacewatch MPS 217797
2007 10 03.26565 01 06 18.34 +08 26 11.9 20.0 R H07 – 7300 Observatory, Cloudcroft MPS 218153
2007 10 03.26939 01 06 18.16 +08 26 09.7 20.0 R H07 – 7300 Observatory, Cloudcroft MPS 218153
2007 10 03.27318 01 06 18.03 +08 26 09.6 20.2 R H07 – 7300 Observatory, Cloudcroft MPS 218153
2007 10 14.20553 00 58 35.06 +07 07 31.8 19.7   704 – Lincoln Laboratory ETS, New Mexico MPS 220677
2007 10 14.22784 00 58 34.02 +07 07 21.7 20.0   704 – Lincoln Laboratory ETS, New Mexico MPS 220677
2007 10 14.23888 00 58 33.51 +07 07 16.7 20.0   704 – Lincoln Laboratory ETS, New Mexico MPS 220677
2007 10 14.24995 00 58 33.07 +07 07 12.2 20.2   704 – Lincoln Laboratory ETS, New Mexico MPS 220677
2007 10 15.14494 00 57 55.43 +07 00 42.8 20.1 V 691 – Steward Observatory, Kitt Peak-Spacewatch MPS 286957
2007 10 15.16258 00 57 54.67 +07 00 34.3 19.5 V 691 – Steward Observatory, Kitt Peak-Spacewatch MPS 286957
2007 10 15.18023 00 57 53.96 +07 00 27.6 19.7 V 691 – Steward Observatory, Kitt Peak-Spacewatch MPS 286957
2007 10 30.25318 00 48 13.21 +05 16 27.5 20.3 V G96 – Mt. Lemmon Survey MPS 223520
2007 10 30.26145 00 48 12.92 +05 16 24.7 19.6 V G96 – Mt. Lemmon Survey MPS 223520
2007 10 30.26975 00 48 12.63 +05 16 21.3 20.2 V G96 – Mt. Lemmon Survey MPS 223520
2007 10 30.27806 00 48 12.31 +05 16 18.0 19.7 V G96 – Mt. Lemmon Survey MPS 223520
2007 11 02.88170 00 46 17.06 +04 54 03.4 19.4 R 185 – Observatoire Astronomique Jurassien-Vicques MPS 224969
2007 11 02.91267 00 46 16.07 +04 53 53.3 19.6 R 185 – Observatoire Astronomique Jurassien-Vicques MPS 224969
2007 11 17.13876 00 40 50.37 +03 42 06.4 20.5 V G96 – Mt. Lemmon Survey MPS 228315
2007 11 17.14554 00 40 50.26 +03 42 04.4 20.5 V G96 – Mt. Lemmon Survey MPS 228315
2007 11 17.15236 00 40 50.16 +03 42 03.0 20.4 V G96 – Mt. Lemmon Survey MPS 228315
2007 11 17.15913 00 40 50.05 +03 42 01.5 20.6 V G96 – Mt. Lemmon Survey MPS 228315
2010 03 13.36904 12 39 07.45 -08 30 13.8 19.3 V 703 – Catalina Sky Survey MPS 317980
2010 03 13.37608 12 39 07.16 -08 30 12.5 19.8 V 703 – Catalina Sky Survey MPS 317980
2010 03 13.38309 12 39 06.91 -08 30 09.9 19.8 V 703 – Catalina Sky Survey MPS 317980
2010 03 13.39007 12 39 06.80 -08 30 07.0 19.8 V 703 – Catalina Sky Survey MPS 317980
2010 03 15.25451 12 37 58.26 -08 17 40.4 20.8 V 691 – Steward Observatory, Kitt Peak-Spacewatch MPS 317980
2010 03 15.27218 12 37 57.55 -08 17 33.6 20.5 V 691 – Steward Observatory, Kitt Peak-Spacewatch MPS 317980
2010 03 15.28986 12 37 56.92 -08 17 26.4 20.4 V 691 – Steward Observatory, Kitt Peak-Spacewatch MPS 317980
2010 03 19.23681 12 35 24.35 -07 49 40.1 21.1 V 691 – Steward Observatory, Kitt Peak-Spacewatch MPS 317980
2010 03 19.25449 12 35 23.68 -07 49 32.9 19.9 V 691 – Steward Observatory, Kitt Peak-Spacewatch MPS 317980
2010 03 19.26978 12 35 23.06 -07 49 26.7 19.8 V 691 – Steward Observatory, Kitt Peak-Spacewatch MPS 317980
2010 04 07.35994 12 22 16.49 -05 20 09.8 19.1   704 – Lincoln Laboratory ETS, New Mexico MPS 320688
2010 04 07.37154 12 22 16.10 -05 20 03.4 19.9   704 – Lincoln Laboratory ETS, New Mexico MPS 320688
2010 04 07.38310 12 22 15.39 -05 19 58.6 19.3   704 – Lincoln Laboratory ETS, New Mexico MPS 320688
2010 04 07.39466 12 22 14.94 -05 19 52.7 19.4   704 – Lincoln Laboratory ETS, New Mexico MPS 320688
2010 04 12.428104 12 19 02.369 -04 40 15.60 20.35 g F51 – Pan-STARRS 1, Haleakala MPS 338894
2010 04 12.437357 12 19 02.008 -04 40 11.25 20.22 g F51 – Pan-STARRS 1, Haleakala MPS 338894
2010 05 07.15876 12 08 48.33 -02 01 48.3 20.3 V G96 – Mt. Lemmon Survey MPS 326292
2010 05 07.16525 12 08 48.26 -02 01 46.7 20.4 V G96 – Mt. Lemmon Survey MPS 326292
2010 05 07.17181 12 08 48.19 -02 01 44.8 20.4 V G96 – Mt. Lemmon Survey MPS 326292
2010 05 07.17831 12 08 48.08 -02 01 42.9 20.1 V G96 – Mt. Lemmon Survey MPS 326292
2011 07 09.38275 18 16 24.670 -08 42 06.09 19.8 r F51 – Pan-STARRS 1, Haleakala MPS 387737
2011 07 09.39190 18 16 24.241 -08 42 06.73 19.9 r F51 – Pan-STARRS 1, Haleakala MPS 387737
2011 07 09.47289 18 16 20.487 -08 42 11.39 20.6 g F51 – Pan-STARRS 1, Haleakala MPS 387737
2011 07 09.48252 18 16 20.051 -08 42 12.25 20.4 g F51 – Pan-STARRS 1, Haleakala MPS 387737
2012 08 13.32871 23 46 03.84 +06 43 30.6   691 – Steward Observatory, Kitt Peak-Spacewatch MPS 429935
2012 08 13.34651 23 46 03.41 +06 43 27.5   691 – Steward Observatory, Kitt Peak-Spacewatch MPS 429935
2012 08 13.36435 23 46 02.99 +06 43 24.2   691 – Steward Observatory, Kitt Peak-Spacewatch MPS 429935
2012 08 25.33688 23 40 22.95 +05 57 24.6 20.3 V 691 – Steward Observatory, Kitt Peak-Spacewatch MPS 430932
2012 08 25.35466 23 40 22.32 +05 57 19.8 20.3 V 691 – Steward Observatory, Kitt Peak-Spacewatch MPS 430932
